PGT5BH LTFH-LTFJ

Flight info

Callsign PGT5BH
Flight time 1h 13m
Altitude 36000
Route HAVZA UW71 ILHAN UT79 NAMAN
Aircraft A21N/M-SDE2E3FGHIJ1RWXY/LB1

Departure

Time 2026-04-22 20:11
Airport Samsun-Çarşamba Airport (LTFH)

Arrival

Time 2026-04-22 21:25
Airport Istanbul Sabiha Gökçen International Airport (LTFJ)
Time Latitude Longitude Altitude Speed Heading
2026-04-22 19:46 41.25838 36.55556 66 ft 0 kts 224°
2026-04-22 20:01 41.25838 36.55557 45 ft 1 kts 224°
2026-04-22 20:01 41.25856 36.55579 52 ft 4 kts 224°
2026-04-22 20:01 41.25873 36.55602 52 ft 4 kts 248°
2026-04-22 20:01 41.25872 36.55631 53 ft 4 kts 301°
2026-04-22 20:02 41.25856 36.55659 49 ft 3 kts 313°
2026-04-22 20:02 41.25841 36.55680 50 ft 4 kts 313°
2026-04-22 20:02 41.25836 36.55686 54 ft 0 kts 313°
2026-04-22 20:05 41.25837 36.55684 54 ft 1 kts 313°
2026-04-22 20:05 41.25850 36.55671 50 ft 3 kts 332°
2026-04-22 20:05 41.25881 36.55673 49 ft 6 kts 27°
2026-04-22 20:06 41.25918 36.55713 53 ft 8 kts 44°
2026-04-22 20:06 41.25967 36.55777 53 ft 11 kts 45°
2026-04-22 20:06 41.26016 36.55870 53 ft 14 kts 85°
2026-04-22 20:06 41.25972 36.55985 55 ft 16 kts 135°
2026-04-22 20:07 41.25891 36.56094 52 ft 18 kts 135°
2026-04-22 20:07 41.25801 36.56220 45 ft 20 kts 134°
2026-04-22 20:07 41.25697 36.56355 30 ft 22 kts 132°
2026-04-22 20:07 41.25591 36.56509 30 ft 23 kts 132°
2026-04-22 20:08 41.25480 36.56668 28 ft 24 kts 133°
2026-04-22 20:08 41.25363 36.56831 25 ft 25 kts 133°
2026-04-22 20:08 41.25241 36.57001 26 ft 26 kts 134°
2026-04-22 20:08 41.25112 36.57178 30 ft 27 kts 133°
2026-04-22 20:09 41.24979 36.57366 30 ft 29 kts 133°
2026-04-22 20:09 41.24840 36.57560 27 ft 29 kts 134°
2026-04-22 20:09 41.24716 36.57730 26 ft 22 kts 134°
2026-04-22 20:09 41.24608 36.57876 25 ft 20 kts 147°
2026-04-22 20:10 41.24518 36.57915 28 ft 9 kts 158°
2026-04-22 20:10 41.24508 36.57988 28 ft 11 kts 53°
2026-04-22 20:10 41.24548 36.57962 28 ft 7 kts 311°
2026-04-22 20:10 41.24594 36.57896 26 ft 26 kts 313°
2026-04-22 20:11 41.24894 36.57479 30 ft 96 kts 313°
2026-04-22 20:11 41.25499 36.56652 29 ft 152 kts 315°
2026-04-22 20:11 41.26296 36.55596 406 ft 162 kts 315°
2026-04-22 20:11 41.27084 36.54547 1123 ft 161 kts 313°
2026-04-22 20:12 41.27874 36.53377 1593 ft 179 kts 313°
2026-04-22 20:12 41.28729 36.52053 2098 ft 198 kts 307°
2026-04-22 20:12 41.29367 36.50360 2639 ft 216 kts 287°
2026-04-22 20:12 41.29381 36.48260 3008 ft 244 kts 254°
2026-04-22 20:13 41.28680 36.46138 3686 ft 256 kts 244°
2026-04-22 20:13 41.27859 36.44009 4540 ft 261 kts 245°
2026-04-22 20:13 41.27038 36.41837 5416 ft 264 kts 245°
2026-04-22 20:13 41.26226 36.39649 6338 ft 264 kts 244°
2026-04-22 20:14 41.25420 36.37451 7232 ft 263 kts 244°
2026-04-22 20:14 41.24622 36.35266 8154 ft 262 kts 244°
2026-04-22 20:14 41.23831 36.33051 9128 ft 261 kts 248°
2026-04-22 20:14 41.23324 36.30755 10130 ft 259 kts 255°
2026-04-22 20:15 41.22917 36.28331 10548 ft 279 kts 256°
2026-04-22 20:15 41.22487 36.25708 10827 ft 301 kts 257°
2026-04-22 20:15 41.22025 36.22942 11399 ft 310 kts 257°
2026-04-22 20:15 41.21553 36.20133 12168 ft 313 kts 256°
2026-04-22 20:16 41.21074 36.17277 12993 ft 315 kts 256°
2026-04-22 20:16 41.20598 36.14442 13780 ft 318 kts 257°
2026-04-22 20:16 41.20116 36.11568 14473 ft 321 kts 256°
2026-04-22 20:16 41.19639 36.08660 15189 ft 321 kts 256°
2026-04-22 20:17 41.19179 36.05774 16070 ft 318 kts 256°
2026-04-22 20:17 41.18731 36.02923 16996 ft 313 kts 255°
2026-04-22 20:17 41.18000 36.00243 17926 ft 307 kts 242°
2026-04-22 20:17 41.16887 35.97851 18783 ft 302 kts 237°
2026-04-22 20:18 41.15710 35.95559 19520 ft 300 kts 236°
2026-04-22 20:18 41.14528 35.93262 20103 ft 302 kts 237°
2026-04-22 20:18 41.13334 35.90924 20487 ft 312 kts 237°
2026-04-22 20:18 41.12098 35.88487 20692 ft 325 kts 237°
2026-04-22 20:19 41.10814 35.85948 20872 ft 338 kts 237°
2026-04-22 20:19 41.09480 35.83306 21082 ft 350 kts 237°
2026-04-22 20:19 41.08116 35.80608 21477 ft 355 kts 237°
2026-04-22 20:19 41.06734 35.77878 21951 ft 358 kts 237°
2026-04-22 20:20 41.05341 35.75131 22447 ft 360 kts 237°
2026-04-22 20:20 41.03920 35.72334 22948 ft 362 kts 237°
2026-04-22 20:20 41.02564 35.69565 23415 ft 364 kts 241°
2026-04-22 20:20 41.01472 35.66489 23824 ft 365 kts 249°
2026-04-22 20:21 41.00566 35.63334 24247 ft 367 kts 250°
2026-04-22 20:21 40.99678 35.60160 24649 ft 369 kts 251°
2026-04-22 20:21 40.99063 35.56859 25050 ft 371 kts 261°
2026-04-22 20:21 40.98809 35.53457 25462 ft 372 kts 264°
2026-04-22 20:22 40.98607 35.50033 25863 ft 374 kts 264°
2026-04-22 20:22 40.98398 35.46600 26252 ft 375 kts 264°
2026-04-22 20:22 40.98175 35.43149 26622 ft 377 kts 264°
2026-04-22 20:22 40.97944 35.39687 26993 ft 379 kts 264°
2026-04-22 20:23 40.97707 35.36225 27383 ft 380 kts 264°
2026-04-22 20:23 40.97466 35.32726 27775 ft 381 kts 264°
2026-04-22 20:23 40.97224 35.29235 28141 ft 382 kts 264°
2026-04-22 20:23 40.96980 35.25729 28488 ft 384 kts 264°
2026-04-22 20:24 40.96734 35.22209 28842 ft 385 kts 264°
2026-04-22 20:24 40.96486 35.18671 29170 ft 387 kts 264°
2026-04-22 20:24 40.96234 35.15123 29495 ft 388 kts 264°
2026-04-22 20:24 40.95979 35.11567 29824 ft 390 kts 264°
2026-04-22 20:25 40.95719 35.07939 30137 ft 391 kts 264°
2026-04-22 20:25 40.95468 35.04421 30472 ft 389 kts 264°
2026-04-22 20:25 40.95208 35.00815 30851 ft 387 kts 264°
2026-04-22 20:25 40.94953 34.97276 31184 ft 386 kts 264°
2026-04-22 20:26 40.94695 34.93746 31527 ft 385 kts 264°
2026-04-22 20:26 40.94438 34.90231 31881 ft 383 kts 264°
2026-04-22 20:26 40.94179 34.86726 32226 ft 382 kts 264°
2026-04-22 20:26 40.93922 34.83239 32567 ft 380 kts 264°
2026-04-22 20:27 40.93667 34.79764 32873 ft 379 kts 264°
2026-04-22 20:27 40.93411 34.76300 33135 ft 378 kts 264°
2026-04-22 20:27 40.93155 34.72846 33420 ft 377 kts 264°
2026-04-22 20:27 40.92894 34.69347 33700 ft 377 kts 264°
2026-04-22 20:28 40.92634 34.65903 33964 ft 376 kts 264°
2026-04-22 20:28 40.92374 34.62466 34168 ft 376 kts 264°
2026-04-22 20:28 40.92113 34.59021 34344 ft 376 kts 264°
2026-04-22 20:28 40.91853 34.55580 34500 ft 376 kts 264°
2026-04-22 20:29 40.91592 34.52138 34665 ft 376 kts 264°
2026-04-22 20:29 40.91325 34.48649 34798 ft 377 kts 264°
2026-04-22 20:29 40.91059 34.45198 34993 ft 377 kts 264°
2026-04-22 20:29 40.90792 34.41754 35156 ft 376 kts 264°
2026-04-22 20:30 40.90525 34.38314 35285 ft 376 kts 263°
2026-04-22 20:30 40.90257 34.34879 35426 ft 376 kts 263°
2026-04-22 20:30 40.89988 34.31435 35537 ft 377 kts 264°
2026-04-22 20:30 40.89718 34.27990 35663 ft 378 kts 264°
2026-04-22 20:31 40.89534 34.25657 35732 ft 378 kts 263°
2026-04-22 20:31 40.89260 34.22197 35837 ft 379 kts 263°
2026-04-22 20:31 40.88985 34.18738 35953 ft 379 kts 263°
2026-04-22 20:32 40.88426 34.11794 35987 ft 379 kts 263°
2026-04-22 20:32 40.87868 34.04869 35964 ft 379 kts 263°
2026-04-22 20:33 40.87301 33.97898 35962 ft 380 kts 263°
2026-04-22 20:33 40.86737 33.90974 35980 ft 379 kts 263°
2026-04-22 20:34 40.86167 33.84043 35964 ft 380 kts 263°
2026-04-22 20:34 40.85591 33.77112 35969 ft 380 kts 263°
2026-04-22 20:35 40.85012 33.70160 35995 ft 380 kts 263°
2026-04-22 20:35 40.84425 33.63211 35990 ft 380 kts 263°
2026-04-22 20:36 40.83845 33.56274 36016 ft 381 kts 263°
2026-04-22 20:36 40.83255 33.49313 36013 ft 381 kts 263°
2026-04-22 20:37 40.82655 33.42354 36014 ft 382 kts 263°
2026-04-22 20:37 40.82051 33.35392 36025 ft 383 kts 263°
2026-04-22 20:38 40.81447 33.28416 36037 ft 383 kts 263°
2026-04-22 20:38 40.80835 33.21439 36049 ft 382 kts 263°
2026-04-22 20:39 40.80219 33.14468 36050 ft 382 kts 263°
2026-04-22 20:39 40.79599 33.07477 36050 ft 384 kts 262°
2026-04-22 20:40 40.78970 33.00470 36057 ft 384 kts 262°
2026-04-22 20:40 40.78335 32.93469 36053 ft 384 kts 262°
2026-04-22 20:41 40.77701 32.86468 36045 ft 384 kts 262°
2026-04-22 20:41 40.77063 32.79478 36052 ft 384 kts 262°
2026-04-22 20:42 40.76419 32.72494 36054 ft 384 kts 262°
2026-04-22 20:42 40.75770 32.65495 36069 ft 385 kts 262°
2026-04-22 20:43 40.75117 32.58496 36058 ft 384 kts 262°
2026-04-22 20:43 40.74461 32.51508 36061 ft 384 kts 262°
2026-04-22 20:44 40.73800 32.44520 36062 ft 384 kts 262°
2026-04-22 20:44 40.73133 32.37499 36051 ft 383 kts 262°
2026-04-22 20:45 40.72464 32.30528 36055 ft 383 kts 262°
2026-04-22 20:45 40.71798 32.23555 36074 ft 385 kts 263°
2026-04-22 20:46 40.72871 32.13071 36071 ft 392 kts 285°
2026-04-22 20:46 40.74631 32.06261 36071 ft 392 kts 285°
2026-04-22 20:47 40.76359 31.99391 36072 ft 392 kts 284°
2026-04-22 20:47 40.78066 31.92555 36106 ft 394 kts 285°
2026-04-22 20:48 40.79760 31.85774 36069 ft 387 kts 285°
2026-04-22 20:48 40.81428 31.79019 36071 ft 387 kts 285°
2026-04-22 20:49 40.83084 31.72264 36069 ft 387 kts 285°
2026-04-22 20:49 40.84741 31.65507 36079 ft 387 kts 285°
2026-04-22 20:50 40.86391 31.58789 36079 ft 382 kts 285°
2026-04-22 20:50 40.88028 31.52107 36071 ft 382 kts 285°
2026-04-22 20:51 40.89655 31.45429 36075 ft 382 kts 285°
2026-04-22 20:51 40.91238 31.38693 36077 ft 377 kts 284°
2026-04-22 20:52 40.92717 31.32105 36082 ft 376 kts 283°
2026-04-22 20:52 40.94214 31.25411 36091 ft 383 kts 283°
2026-04-22 20:53 40.95728 31.18643 36096 ft 384 kts 283°
2026-04-22 20:53 40.97238 31.11876 36086 ft 384 kts 283°
2026-04-22 20:54 40.98753 31.05063 36063 ft 380 kts 283°
2026-04-22 20:54 40.99493 31.01728 35792 ft 378 kts 283°
2026-04-22 20:54 41.00226 30.98389 35564 ft 378 kts 283°
2026-04-22 20:55 41.00906 30.95048 35233 ft 373 kts 280°
2026-04-22 20:55 41.01307 30.91664 34433 ft 373 kts 273°
2026-04-22 20:55 41.01224 30.88231 33512 ft 375 kts 263°
2026-04-22 20:55 41.00569 30.84869 32469 ft 382 kts 252°
2026-04-22 20:56 40.99380 30.81630 31415 ft 390 kts 245°
2026-04-22 20:56 40.98063 30.78487 30626 ft 390 kts 244°
2026-04-22 20:56 40.96750 30.75358 29900 ft 388 kts 244°
2026-04-22 20:56 40.95460 30.72248 29167 ft 384 kts 244°
2026-04-22 20:57 40.94182 30.69160 28513 ft 380 kts 244°
2026-04-22 20:57 40.92928 30.66113 27965 ft 373 kts 244°
2026-04-22 20:57 40.91703 30.63132 27487 ft 366 kts 244°
2026-04-22 20:57 40.90496 30.60194 26967 ft 360 kts 244°
2026-04-22 20:58 40.89318 30.57330 26528 ft 353 kts 244°
2026-04-22 20:58 40.88148 30.54496 26089 ft 346 kts 244°
2026-04-22 20:58 40.87005 30.51727 25687 ft 341 kts 244°
2026-04-22 20:58 40.85878 30.49000 25314 ft 336 kts 243°
2026-04-22 20:59 40.84762 30.46308 24885 ft 332 kts 243°
2026-04-22 20:59 40.83661 30.43650 24477 ft 329 kts 243°
2026-04-22 20:59 40.82571 30.41013 24082 ft 324 kts 243°
2026-04-22 20:59 40.81494 30.38415 23681 ft 320 kts 243°
2026-04-22 21:00 40.80436 30.35865 23222 ft 315 kts 243°
2026-04-22 21:00 40.79392 30.33348 22810 ft 315 kts 243°
2026-04-22 21:00 40.78329 30.30785 22445 ft 316 kts 243°
2026-04-22 21:00 40.77282 30.28270 22040 ft 309 kts 243°
2026-04-22 21:01 40.76235 30.25753 21675 ft 315 kts 243°
2026-04-22 21:01 40.75186 30.23238 21251 ft 312 kts 243°
2026-04-22 21:01 40.74494 30.21580 20993 ft 310 kts 243°
2026-04-22 21:01 40.73461 30.19104 20604 ft 307 kts 243°
2026-04-22 21:02 40.72436 30.16647 20229 ft 304 kts 243°
2026-04-22 21:02 40.71423 30.14223 19874 ft 301 kts 243°
2026-04-22 21:02 40.70420 30.11824 19529 ft 298 kts 243°
2026-04-22 21:02 40.69421 30.09439 19200 ft 296 kts 242°
2026-04-22 21:03 40.68432 30.07079 18872 ft 293 kts 242°
2026-04-22 21:03 40.67449 30.04736 18549 ft 291 kts 242°
2026-04-22 21:03 40.66469 30.02403 18208 ft 290 kts 242°
2026-04-22 21:03 40.65495 30.00081 17854 ft 289 kts 242°
2026-04-22 21:04 40.64525 29.97772 17523 ft 288 kts 242°
2026-04-22 21:04 40.63558 29.95473 17178 ft 287 kts 242°
2026-04-22 21:04 40.62593 29.93182 16852 ft 285 kts 242°
2026-04-22 21:04 40.61635 29.90907 16542 ft 284 kts 242°
2026-04-22 21:05 40.60678 29.88639 16230 ft 283 kts 243°
2026-04-22 21:05 40.59723 29.86377 15919 ft 282 kts 243°
2026-04-22 21:05 40.58771 29.84123 15603 ft 282 kts 243°
2026-04-22 21:05 40.57821 29.81874 15321 ft 282 kts 243°
2026-04-22 21:06 40.56870 29.79622 15024 ft 281 kts 242°
2026-04-22 21:06 40.55921 29.77378 14718 ft 280 kts 242°
2026-04-22 21:06 40.54975 29.75145 14409 ft 280 kts 242°
2026-04-22 21:06 40.54028 29.72907 14095 ft 279 kts 242°
2026-04-22 21:07 40.53085 29.70673 13782 ft 289 kts 243°
2026-04-22 21:07 40.52394 29.68128 13470 ft 299 kts 257°
2026-04-22 21:07 40.52047 29.65426 13201 ft 300 kts 260°
2026-04-22 21:07 40.51736 29.62713 12929 ft 300 kts 261°
2026-04-22 21:08 40.51416 29.59996 12658 ft 300 kts 261°
2026-04-22 21:08 40.51089 29.57288 12395 ft 300 kts 261°
2026-04-22 21:08 40.50757 29.54583 12130 ft 300 kts 261°
2026-04-22 21:08 40.50415 29.51833 11876 ft 302 kts 262°
2026-04-22 21:09 40.50082 29.49166 11529 ft 299 kts 262°
2026-04-22 21:09 40.49742 29.46463 11017 ft 300 kts 262°
2026-04-22 21:09 40.49397 29.43727 10592 ft 297 kts 262°
2026-04-22 21:09 40.49069 29.41123 10416 ft 288 kts 263°
2026-04-22 21:10 40.48743 29.38539 10207 ft 278 kts 262°
2026-04-22 21:10 40.48429 29.36058 9894 ft 274 kts 262°
2026-04-22 21:10 40.48117 29.33593 9460 ft 274 kts 262°
2026-04-22 21:10 40.47803 29.31121 9026 ft 273 kts 262°
2026-04-22 21:11 40.47491 29.28666 8616 ft 273 kts 262°
2026-04-22 21:11 40.47178 29.26210 8204 ft 272 kts 262°
2026-04-22 21:11 40.46864 29.23761 7788 ft 272 kts 262°
2026-04-22 21:11 40.46550 29.21308 7361 ft 273 kts 262°
2026-04-22 21:12 40.46236 29.18853 6968 ft 273 kts 262°
2026-04-22 21:12 40.45920 29.16395 6576 ft 273 kts 262°
2026-04-22 21:12 40.45604 29.13942 6152 ft 272 kts 262°
2026-04-22 21:12 40.45284 29.11461 5752 ft 271 kts 262°
2026-04-22 21:13 40.44964 29.08985 5366 ft 271 kts 261°
2026-04-22 21:13 40.44649 29.06546 4967 ft 271 kts 261°
2026-04-22 21:13 40.44334 29.04118 4667 ft 271 kts 261°
2026-04-22 21:13 40.44018 29.01678 5178 ft 273 kts 262°
2026-04-22 21:14 40.43782 28.99210 5455 ft 272 kts 271°
2026-04-22 21:14 40.44018 28.96765 5515 ft 270 kts 282°
2026-04-22 21:14 40.44407 28.94340 5511 ft 275 kts 284°
2026-04-22 21:14 40.44807 28.91886 5509 ft 275 kts 283°
2026-04-22 21:15 40.45351 28.89498 5485 ft 271 kts 299°
2026-04-22 21:15 40.46514 28.87592 5481 ft 268 kts 322°
2026-04-22 21:15 40.48144 28.86465 5488 ft 264 kts 346°
2026-04-22 21:15 40.49956 28.86261 5494 ft 262 kts
2026-04-22 21:16 40.51670 28.86953 5499 ft 259 kts 28°
2026-04-22 21:16 40.53233 28.88135 5497 ft 259 kts 32°
2026-04-22 21:16 40.54784 28.89367 5493 ft 260 kts 31°
2026-04-22 21:16 40.56340 28.90577 5493 ft 259 kts 31°
2026-04-22 21:17 40.57896 28.91766 5496 ft 261 kts 31°
2026-04-22 21:17 40.59459 28.92950 5497 ft 261 kts 30°
2026-04-22 21:17 40.61029 28.94134 5500 ft 259 kts 30°
2026-04-22 21:17 40.62590 28.95305 5493 ft 257 kts 31°
2026-04-22 21:18 40.64153 28.96474 5496 ft 261 kts 30°
2026-04-22 21:18 40.65741 28.97659 5506 ft 263 kts 30°
2026-04-22 21:18 40.67331 28.98846 5517 ft 262 kts 30°
2026-04-22 21:18 40.68932 29.00044 5521 ft 262 kts 30°
2026-04-22 21:19 40.70519 29.01229 5519 ft 262 kts 30°
2026-04-22 21:19 40.72110 29.02421 5519 ft 262 kts 30°
2026-04-22 21:19 40.73688 29.03604 5522 ft 259 kts 30°
2026-04-22 21:19 40.75214 29.04747 5446 ft 245 kts 30°
2026-04-22 21:20 40.76668 29.05836 5286 ft 236 kts 30°
2026-04-22 21:20 40.78092 29.06898 5016 ft 233 kts 30°
2026-04-22 21:20 40.79453 29.08018 4710 ft 229 kts 38°
2026-04-22 21:20 40.80586 29.09458 4383 ft 224 kts 52°
2026-04-22 21:21 40.81444 29.11145 4062 ft 220 kts 61°
2026-04-22 21:21 40.82090 29.12981 3731 ft 216 kts 65°
2026-04-22 21:21 40.82745 29.14752 3393 ft 211 kts 65°
2026-04-22 21:21 40.83370 29.16440 3055 ft 199 kts 65°
2026-04-22 21:22 40.83957 29.18028 2751 ft 184 kts 65°
2026-04-22 21:22 40.84499 29.19492 2502 ft 171 kts 65°
2026-04-22 21:22 40.85004 29.20856 2240 ft 160 kts 65°
2026-04-22 21:22 40.85472 29.22121 1962 ft 144 kts 65°
2026-04-22 21:23 40.85883 29.23233 1731 ft 128 kts 65°
2026-04-22 21:23 40.86275 29.24294 1499 ft 128 kts 65°
2026-04-22 21:23 40.86675 29.25374 1284 ft 131 kts 65°
2026-04-22 21:23 40.87070 29.26459 1035 ft 131 kts 65°
2026-04-22 21:24 40.87468 29.27534 844 ft 130 kts 63°
2026-04-22 21:24 40.87878 29.28616 617 ft 130 kts 65°
2026-04-22 21:24 40.88274 29.29684 402 ft 129 kts 63°
2026-04-22 21:24 40.88670 29.30760 317 ft 123 kts 64°
2026-04-22 21:25 40.88992 29.31630 306 ft 73 kts 64°
2026-04-22 21:25 40.89152 29.32071 308 ft 44 kts 62°
2026-04-22 21:25 40.89274 29.32336 308 ft 20 kts 44°
2026-04-22 21:25 40.89392 29.32455 308 ft 22 kts 33°
2026-04-22 21:26 40.89482 29.32498 309 ft 10 kts 316°
2026-04-22 21:26 40.89491 29.32430 308 ft 6 kts 256°
2026-04-22 21:26 40.89488 29.32411 310 ft 0 kts 256°
2026-04-22 21:27 40.89487 29.32406 310 ft 2 kts 270°
2026-04-22 21:27 40.89494 29.32391 309 ft 4 kts 300°
2026-04-22 21:27 40.89522 29.32361 309 ft 7 kts 339°
2026-04-22 21:28 40.89578 29.32344 311 ft 9 kts 349°
2026-04-22 21:28 40.89645 29.32316 308 ft 11 kts 337°
2026-04-22 21:28 40.89720 29.32267 310 ft 13 kts 333°
2026-04-22 21:28 40.89812 29.32206 312 ft 16 kts 334°
2026-04-22 21:29 40.89919 29.32137 316 ft 18 kts 334°
2026-04-22 21:29 40.90038 29.32060 316 ft 20 kts 335°
2026-04-22 21:29 40.90122 29.32142 316 ft 18 kts 65°
2026-04-22 21:29 40.90177 29.32295 316 ft 19 kts 64°
2026-04-22 21:30 40.90237 29.32458 316 ft 20 kts 63°
2026-04-22 21:30 40.90289 29.32578 315 ft 9 kts 38°
2026-04-22 21:30 40.90359 29.32568 316 ft 12 kts 327°
2026-04-22 21:30 40.90436 29.32509 318 ft 14 kts 332°
2026-04-22 21:31 40.90528 29.32451 316 ft 15 kts 336°
2026-04-22 21:31 40.90598 29.32395 316 ft 11 kts 310°
2026-04-22 21:31 40.90655 29.32312 316 ft 13 kts 328°
2026-04-22 21:31 40.90733 29.32237 316 ft 15 kts 278°
2026-04-22 21:32 40.90742 29.32115 315 ft 14 kts 332°
2026-04-22 21:32 40.90833 29.32049 316 ft 15 kts 311°
2026-04-22 21:32 40.90876 29.31966 316 ft 4 kts 285°
2026-04-22 21:32 40.90866 29.31929 316 ft 5 kts 242°
2026-04-22 21:33 40.90858 29.31909 315 ft 1 kts 244°